| time (UTC) | temp F | wind direction | speed knots | gust knots | rain 1hr in | rain 24hr in | rain mn in | humidity % | barometer mb |
| 20260508085517 | 43 | 0.0 | 0.0 | 0.00 | 0.50 | 0.00 | 96 | 1015.6 | |
| 20260508085017 | 43 | 0.0 | 0.0 | 0.00 | 0.50 | 0.00 | 96 | 1015.6 | |
| 20260508084537 | 44 | 0.0 | 0.0 | 0.00 | 0.50 | 0.00 | 95 | 1015.6 | |
| 20260508084017 | 44 | 0.0 | 0.0 | 0.00 | 0.50 | 0.00 | 96 | 1015.5 | |
| 20260508083517 | 44 | 0.0 | 0.0 | 0.00 | 0.50 | 0.00 | 96 | 1015.6 | |
| 20260508083017 | 44 | 0.0 | 0.0 | 0.00 | 0.50 | 0.00 | 96 | 1015.5 | |
| 20260508082517 | 44 | 0.0 | 0.0 | 0.00 | 0.50 | 0.00 | 96 | 1015.4 | |
| 20260508082017 | 44 | 0.0 | 0.0 | 0.00 | 0.50 | 0.00 | 96 | 1015.2 | |
| 20260508081517 | 44 | 0.0 | 0.0 | 0.00 | 0.50 | 0.00 | 96 | 1015.3 | |
| 20260508081017 | 44 | 0.0 | 0.0 | 0.00 | 0.50 | 0.00 | 96 | 1015.3 | |
| 20260508080517 | 44 | 0.0 | 0.0 | 0.00 | 0.50 | 0.00 | 96 | 1015.2 | |
| 20260508080017 | 44 | 0.0 | 0.0 | 0.00 | 0.50 | 0.00 | 96 | 1015.1 | |
| 20260508075517 | 44 | 0.0 | 0.0 | 0.00 | 0.50 | 0.00 | 96 | 1015.2 | |
| 20260508075017 | 44 | 0.0 | 0.0 | 0.00 | 0.50 | 0.00 | 95 | 1015.2 | |
| 20260508074537 | 44 | 0.0 | 0.0 | 0.00 | 0.50 | 0.00 | 95 | 1015.3 | |
| 20260508074017 | 44 | 0.0 | 0.0 | 0.00 | 0.50 | 0.00 | 96 | 1015.2 | |
| 20260508073537 | 45 | 0.0 | 0.0 | 0.00 | 0.50 | 0.00 | 96 | 1015.2 | |
| 20260508073017 | 45 | 0.0 | 0.0 | 0.00 | 0.50 | 0.00 | 96 | 1015.3 | |
| 20260508072517 | 45 | 0.0 | 0.0 | 0.00 | 0.51 | 0.00 | 95 | 1015.2 | |
| 20260508072017 | 45 | 0.0 | 0.0 | 0.00 | 0.51 | 0.00 | 95 | 1015.1 | |
| 20260508071517 | 45 | 0.0 | 0.0 | 0.00 | 0.51 | 0.00 | 96 | 1015.1 | |
| 20260508071017 | 45 | 0.0 | 0.0 | 0.00 | 0.51 | 0.00 | 96 | 1015.2 | |
| 20260508070517 | 45 | 0.0 | 0.0 | 0.00 | 0.51 | 0.00 | 96 | 1015.1 | |
| 20260508070016 | 45 | 0.0 | 0.0 | 0.00 | 0.51 | 0.00 | 96 | 1015.1 | |
| 20260508065516 | 45 | 0.0 | 0.0 | 0.00 | 0.51 | 0.00 | 95 | 1015.0 | |
| 20260508065036 | 45 | 0.0 | 0.0 | 0.00 | 0.51 | 0.00 | 95 | 1014.9 | |
| 20260508064517 | 45 | 0.0 | 0.9 | 0.00 | 0.51 | 0.00 | 95 | 1014.9 | |
| 20260508064017 | 45 | 0.0 | 0.0 | 0.00 | 0.51 | 0.00 | 95 | 1014.9 | |
| 20260508063517 | 45 | 0.0 | 0.0 | 0.00 | 0.51 | 0.00 | 95 | 1014.9 | |
| 20260508063037 | 46 | 0.0 | 0.0 | 0.00 | 0.51 | 0.00 | 95 | 1014.8 | |
| 20260508062517 | 46 | 0.0 | 0.0 | 0.00 | 0.51 | 0.00 | 95 | 1014.9 | |
| 20260508062017 | 46 | 0.0 | 0.0 | 0.00 | 0.52 | 0.00 | 95 | 1015.0 | |
| 20260508061517 | 46 | 0.0 | 0.0 | 0.00 | 0.52 | 0.00 | 95 | 1015.0 | |
| 20260508061017 | 46 | 0.0 | 0.0 | 0.00 | 0.52 | 0.00 | 95 | 1014.9 | |
| 20260508060517 | 46 | 0.0 | 0.0 | 0.00 | 0.52 | 0.00 | 95 | 1015.1 | |
| 20260508060037 | 46 | 0.0 | 0.0 | 0.00 | 0.52 | 0.00 | 95 | 1015.0 | |
| 20260508055517 | 46 | 0.0 | 0.0 | 0.00 | 0.52 | 0.00 | 95 | 1015.0 | |
| 20260508055017 | 46 | 0.0 | 0.0 | 0.00 | 0.52 | 0.00 | 95 | 1014.9 | |
| 20260508054517 | 47 | 0.0 | 0.0 | 0.00 | 0.52 | 0.00 | 95 | 1014.8 | |
| 20260508054036 | 47 | 0.0 | 0.0 | 0.00 | 0.52 | 0.00 | 95 | 1014.8 | |
| 20260508053536 | 47 | 0.0 | 0.0 | 0.00 | 0.52 | 0.00 | 95 | 1014.8 | |
| 20260508053017 | 47 | 0.0 | 0.0 | 0.00 | 0.52 | 0.00 | 95 | 1014.9 | |
| 20260508052517 | 47 | 0.0 | 0.0 | 0.00 | 0.52 | 0.00 | 95 | 1014.9 | |
| 20260508052017 | 47 | 0.0 | 0.0 | 0.00 | 0.53 | 0.00 | 95 | 1014.8 | |
| 20260508051517 | 47 | 0.0 | 0.0 | 0.00 | 0.54 | 0.00 | 95 | 1014.7 | |
| 20260508051016 | 48 | 0.0 | 0.0 | 0.00 | 0.55 | 0.00 | 95 | 1014.7 | |
| 20260508050516 | 48 | 0.0 | 0.0 | 0.00 | 0.55 | 0.00 | 95 | 1014.7 | |
| 20260508050016 | 48 | 0.0 | 0.0 | 0.00 | 0.56 | 0.00 | 95 | 1014.7 | |
| 20260508045517 | 48 | 0.0 | 0.0 | 0.00 | 0.56 | 0.00 | 95 | 1014.6 | |
| 20260508045016 | 48 | 0.0 | 0.0 | 0.00 | 0.56 | 0.00 | 95 | 1014.7 | |
| 20260508044516 | 48 | 0.0 | 0.9 | 0.00 | 0.56 | 0.00 | 95 | 1014.7 | |
| 20260508044016 | 48 | 0.0 | 0.9 | 0.00 | 0.56 | 0.00 | 95 | 1014.7 | |
| 20260508043516 | 48 | 0.0 | 0.0 | 0.00 | 0.56 | 0.00 | 95 | 1014.7 | |
| 20260508043016 | 48 | 0.0 | 0.0 | 0.00 | 0.56 | 0.00 | 95 | 1014.5 | |
| 20260508042516 | 49 | 0.0 | 0.0 | 0.00 | 0.56 | 0.00 | 95 | 1014.5 | |
| 20260508042016 | 49 | 0.0 | 0.0 | 0.00 | 0.56 | 0.00 | 95 | 1014.4 | |
| 20260508041516 | 49 | 0.0 | 0.0 | 0.00 | 0.56 | 0.00 | 95 | 1014.4 | |
| 20260508041016 | 49 | 0.0 | 0.0 | 0.00 | 0.56 | 0.00 | 95 | 1014.2 | |
| 20260508040516 | 49 | 0.0 | 0.0 | 0.00 | 0.56 | 0.00 | 95 | 1014.2 | |
| 20260508040016 | 49 | 0.0 | 0.0 | 0.00 | 0.56 | 0.56 | 95 | 1014.3 | |
| 20260508035515 | 49 | 0.0 | 0.0 | 0.00 | 0.56 | 0.56 | 95 | 1014.2 | |
| 20260508035016 | 49 | 0.0 | 0.0 | 0.00 | 0.56 | 0.56 | 95 | 1014.1 | |
| 20260508034515 | 50 | 0.0 | 0.0 | 0.00 | 0.56 | 0.56 | 95 | 1014.1 | |
| 20260508034015 | 50 | 0.0 | 0.0 | 0.00 | 0.56 | 0.56 | 95 | 1014.1 | |
| 20260508033516 | 50 | 0.0 | 0.0 | 0.00 | 0.56 | 0.56 | 95 | 1014.1 | |
| 20260508033015 | 50 | 0.0 | 0.0 | 0.00 | 0.56 | 0.56 | 95 | 1014.1 | |
| 20260508032515 | 50 | 0.0 | 0.0 | 0.00 | 0.57 | 0.56 | 95 | 1014.2 | |
| 20260508032016 | 50 | 0.0 | 0.0 | 0.00 | 0.57 | 0.56 | 95 | 1014.1 | |
| 20260508031535 | 50 | 0.0 | 0.9 | 0.00 | 0.58 | 0.56 | 95 | 1013.9 | |
| 20260508031015 | 50 | 0.0 | 0.9 | 0.00 | 0.59 | 0.56 | 95 | 1013.6 | |
| 20260508030516 | 51 | 0.0 | 0.9 | 0.00 | 0.59 | 0.56 | 95 | 1013.7 | |
| 20260508030016 | 51 | 0.0 | 1.7 | 0.00 | 0.60 | 0.56 | 95 | 1013.7 | |
| 20260508025535 | 51 | 0.0 | 0.0 | 0.00 | 0.61 | 0.56 | 95 | 1013.8 | |
| 20260508025015 | 51 | 0.0 | 0.0 | 0.00 | 0.61 | 0.56 | 95 | 1013.8 | |
| 20260508024515 | 51 | 0.0 | 0.0 | 0.00 | 0.62 | 0.56 | 95 | 1013.8 | |
| 20260508024015 | 51 | 0.0 | 0.0 | 0.00 | 0.62 | 0.56 | 95 | 1013.7 | |
| 20260508023515 | 51 | 0.0 | 1.7 | 0.00 | 0.62 | 0.56 | 95 | 1013.8 | |
| 20260508023035 | 52 | 180 | 0.9 | 2.6 | 0.00 | 0.62 | 0.56 | 95 | 1013.7 |
| 20260508022515 | 52 | 135 | 0.9 | 1.7 | 0.00 | 0.63 | 0.56 | 95 | 1013.4 |
| 20260508022015 | 52 | 135 | 0.9 | 1.7 | 0.00 | 0.63 | 0.56 | 95 | 1013.4 |
| 20260508021517 | 52 | 0.0 | 0.0 | 0.00 | 0.63 | 0.56 | 95 | 1013.3 | |
| 20260508021017 | 52 | 0.0 | 0.0 | 0.00 | 0.63 | 0.56 | 95 | 1013.2 | |
| 20260508020517 | 52 | 0.0 | 0.9 | 0.00 | 0.63 | 0.56 | 95 | 1013.2 | |
| 20260508020017 | 53 | 0.0 | 0.0 | 0.00 | 0.63 | 0.56 | 94 | 1013.2 | |
| 20260508015517 | 53 | 0.0 | 0.0 | 0.00 | 0.63 | 0.56 | 94 | 1013.1 | |
| 20260508015017 | 53 | 0.0 | 0.0 | 0.00 | 0.63 | 0.56 | 95 | 1013.0 | |
| 20260508014517 | 53 | 0.0 | 0.0 | 0.00 | 0.64 | 0.56 | 95 | 1012.8 | |
| 20260508014017 | 53 | 0.0 | 0.0 | 0.00 | 0.64 | 0.56 | 95 | 1012.6 | |
| 20260508013517 | 53 | 0.0 | 0.0 | 0.00 | 0.64 | 0.56 | 94 | 1012.6 | |
| 20260508013017 | 54 | 0.0 | 0.0 | 0.00 | 0.64 | 0.56 | 95 | 1012.5 | |
| 20260508012517 | 54 | 0.0 | 0.0 | 0.00 | 0.64 | 0.56 | 94 | 1012.3 | |
| 20260508012017 | 54 | 0.0 | 0.9 | 0.00 | 0.65 | 0.56 | 95 | 1012.2 | |
| 20260508011517 | 54 | 0.0 | 0.0 | 0.00 | 0.65 | 0.56 | 95 | 1012.1 | |
| 20260508011017 | 54 | 0.0 | 0.9 | 0.00 | 0.65 | 0.56 | 94 | 1012.0 | |
| 20260508010517 | 54 | 0.0 | 0.0 | 0.00 | 0.65 | 0.56 | 94 | 1012.0 | |
| 20260508010017 | 54 | 0.0 | 0.9 | 0.00 | 0.65 | 0.56 | 94 | 1011.9 | |
| 20260508005517 | 55 | 0.0 | 0.0 | 0.00 | 0.65 | 0.56 | 94 | 1011.9 | |
| 20260508005017 | 55 | 0.0 | 0.0 | 0.00 | 0.65 | 0.56 | 94 | 1011.9 | |
| 20260508004517 | 55 | 0.0 | 0.0 | 0.00 | 0.65 | 0.56 | 94 | 1011.8 | |
| 20260508004017 | 55 | 0.0 | 0.0 | 0.00 | 0.65 | 0.56 | 94 | 1011.8 | |
| 20260508003517 | 56 | 0.0 | 0.0 | 0.00 | 0.65 | 0.56 | 93 | 1011.8 | |
| 20260508003017 | 56 | 0.0 | 0.0 | 0.00 | 0.65 | 0.56 | 94 | 1011.9 | |
| 20260508002517 | 56 | 0.0 | 0.0 | 0.00 | 0.65 | 0.56 | 94 | 1011.8 | |
| 20260508002037 | 56 | 0.0 | 0.0 | 0.00 | 0.66 | 0.56 | 94 | 1011.8 | |
| 20260508001517 | 56 | 0.0 | 0.9 | 0.00 | 0.66 | 0.56 | 94 | 1011.6 | |
| 20260508001017 | 56 | 135 | 0.9 | 2.6 | 0.00 | 0.66 | 0.56 | 94 | 1011.6 |
| 20260508000517 | 57 | 0.0 | 0.9 | 0.00 | 0.66 | 0.56 | 94 | 1011.8 | |
| 20260508000017 | 57 | 0.0 | 0.9 | 0.00 | 0.66 | 0.56 | 94 | 1011.9 | |
| 20260507235537 | 57 | 0.0 | 1.7 | 0.00 | 0.66 | 0.56 | 94 | 1011.8 | |
| 20260507235017 | 57 | 0.0 | 0.9 | 0.00 | 0.66 | 0.56 | 93 | 1011.8 | |
| 20260507234517 | 57 | 0.0 | 0.9 | 0.00 | 0.66 | 0.56 | 93 | 1011.8 | |
| 20260507234037 | 57 | 0.0 | 1.7 | 0.00 | 0.66 | 0.56 | 93 | 1011.7 | |
| 20260507233517 | 57 | 0.0 | 0.9 | 0.00 | 0.66 | 0.56 | 93 | 1011.6 | |
| 20260507233017 | 57 | 0.0 | 1.7 | 0.00 | 0.66 | 0.56 | 93 | 1011.3 | |
| 20260507232537 | 57 | 0.0 | 0.9 | 0.00 | 0.66 | 0.56 | 93 | 1011.2 | |
| 20260507232017 | 57 | 0.0 | 1.7 | 0.00 | 0.66 | 0.56 | 93 | 1011.2 | |
| 20260507231517 | 57 | 0.0 | 0.9 | 0.00 | 0.66 | 0.56 | 93 | 1011.1 | |
| 20260507231017 | 57 | 0.0 | 1.7 | 0.00 | 0.66 | 0.56 | 93 | 1011.0 | |
| 20260507230517 | 57 | 0.0 | 1.7 | 0.00 | 0.66 | 0.56 | 94 | 1010.9 | |
| 20260507230037 | 57 | 113 | 0.9 | 2.6 | 0.00 | 0.66 | 0.56 | 93 | 1010.9 |
| 20260507225517 | 57 | 113 | 0.9 | 3.5 | 0.00 | 0.66 | 0.56 | 93 | 1010.8 |
| 20260507225017 | 57 | 113 | 0.9 | 1.7 | 0.00 | 0.66 | 0.56 | 93 | 1010.7 |
| 20260507224517 | 57 | 113 | 0.9 | 3.5 | 0.00 | 0.66 | 0.56 | 93 | 1010.6 |
| 20260507224017 | 57 | 90 | 1.7 | 6.1 | 0.00 | 0.66 | 0.56 | 93 | 1010.5 |
| 20260507223517 | 57 | 135 | 1.7 | 6.1 | 0.00 | 0.66 | 0.56 | 93 | 1010.4 |
| 20260507223037 | 57 | 113 | 0.9 | 5.2 | 0.00 | 0.66 | 0.56 | 93 | 1010.3 |
| 20260507222517 | 57 | 338 | 1.7 | 7.0 | 0.00 | 0.66 | 0.56 | 93 | 1010.3 |
| 20260507222017 | 57 | 113 | 0.9 | 4.3 | 0.00 | 0.66 | 0.56 | 93 | 1010.2 |
| 20260507221537 | 56 | 135 | 1.7 | 6.1 | 0.00 | 0.66 | 0.56 | 93 | 1010.3 |
| 20260507221017 | 56 | 135 | 0.9 | 4.3 | 0.00 | 0.66 | 0.56 | 94 | 1010.2 |
| 20260507220517 | 56 | 135 | 1.7 | 7.0 | 0.00 | 0.66 | 0.56 | 94 | 1010.1 |
| 20260507220016 | 56 | 158 | 0.9 | 3.5 | 0.00 | 0.66 | 0.56 | 94 | 1010.2 |
| 20260507215517 | 56 | 23 | 0.9 | 4.3 | 0.00 | 0.66 | 0.56 | 94 | 1010.2 |
| 20260507215017 | 57 | 135 | 0.9 | 2.6 | 0.00 | 0.66 | 0.56 | 93 | 1010.5 |
| 20260507214517 | 57 | 113 | 1.7 | 9.6 | 0.00 | 0.66 | 0.56 | 93 | 1010.3 |
| 20260507214017 | 57 | 113 | 1.7 | 7.0 | 0.00 | 0.66 | 0.56 | 93 | 1010.1 |
| 20260507213517 | 57 | 135 | 1.7 | 6.1 | 0.00 | 0.66 | 0.56 | 94 | 1009.9 |
| 20260507213016 | 57 | 158 | 1.7 | 6.1 | 0.00 | 0.66 | 0.56 | 94 | 1009.8 |
| 20260507212517 | 57 | 113 | 1.7 | 7.0 | 0.00 | 0.66 | 0.56 | 94 | 1009.9 |
| 20260507212016 | 57 | 113 | 2.6 | 7.8 | 0.00 | 0.66 | 0.56 | 93 | 1009.9 |
| 20260507211517 | 57 | 113 | 3.5 | 10.4 | 0.00 | 0.66 | 0.56 | 94 | 1009.8 |
| 20260507211016 | 57 | 113 | 2.6 | 8.7 | 0.00 | 0.66 | 0.56 | 95 | 1009.6 |
| 20260507210536 | 57 | 90 | 0.9 | 3.5 | 0.00 | 0.66 | 0.56 | 95 | 1009.8 |
| 20260507210017 | 57 | 113 | 1.7 | 7.0 | 0.00 | 0.66 | 0.56 | 94 | 1009.9 |
| 20260507205516 | 57 | 135 | 2.6 | 7.0 | 0.02 | 0.66 | 0.56 | 94 | 1010.0 |
| 20260507205036 | 57 | 270 | 1.7 | 5.2 | 0.06 | 0.66 | 0.56 | 94 | 1009.8 |
| 20260507204517 | 57 | 113 | 2.6 | 7.8 | 0.16 | 0.66 | 0.56 | 95 | 1009.8 |
| 20260507204016 | 57 | 113 | 1.7 | 7.8 | 0.26 | 0.66 | 0.56 | 95 | 1009.8 |
| 20260507203517 | 57 | 113 | 3.5 | 7.8 | 0.29 | 0.66 | 0.56 | 94 | 1009.9 |
| 20260507203016 | 57 | 113 | 4.3 | 9.6 | 0.31 | 0.66 | 0.56 | 94 | 1010.0 |
| 20260507202516 | 58 | 113 | 3.5 | 8.7 | 0.31 | 0.66 | 0.56 | 95 | 1009.9 |
| 20260507202016 | 58 | 90 | 3.5 | 8.7 | 0.31 | 0.66 | 0.56 | 95 | 1009.6 |
| 20260507201517 | 58 | 113 | 3.5 | 9.6 | 0.31 | 0.66 | 0.56 | 95 | 1009.7 |
| 20260507201017 | 57 | 90 | 1.7 | 7.0 | 0.31 | 0.66 | 0.56 | 95 | 1009.8 |
| 20260507200517 | 57 | 113 | 3.5 | 7.8 | 0.31 | 0.66 | 0.56 | 94 | 1009.8 |
| 20260507200017 | 58 | 113 | 2.6 | 8.7 | 0.31 | 0.66 | 0.56 | 93 | 1010.1 |
| 20260507195516 | 58 | 113 | 0.9 | 5.2 | 0.29 | 0.64 | 0.54 | 93 | 1010.2 |
| 20260507195016 | 58 | 113 | 0.9 | 4.3 | 0.25 | 0.60 | 0.50 | 92 | 1010.2 |
| 20260507194536 | 59 | 90 | 1.7 | 8.7 | 0.15 | 0.50 | 0.40 | 91 | 1009.9 |
| 20260507194036 | 60 | 113 | 3.5 | 11.3 | 0.05 | 0.40 | 0.30 | 90 | 1009.9 |
| 20260507193516 | 61 | 113 | 2.6 | 7.8 | 0.02 | 0.37 | 0.26 | 89 | 1009.8 |
| 20260507193037 | 61 | 135 | 2.6 | 7.8 | 0.00 | 0.35 | 0.25 | 87 | 1009.5 |
| 20260507192536 | 62 | 90 | 3.5 | 9.6 | 0.00 | 0.35 | 0.25 | 86 | 1009.2 |
| 20260507192016 | 63 | 338 | 1.7 | 11.3 | 0.00 | 0.35 | 0.25 | 85 | 1009.2 |
| 20260507191516 | 64 | 135 | 2.6 | 8.7 | 0.00 | 0.35 | 0.25 | 84 | 1009.1 |
| 20260507191016 | 65 | 113 | 2.6 | 8.7 | 0.00 | 0.35 | 0.25 | 82 | 1008.7 |
| 20260507190516 | 66 | 270 | 1.7 | 7.0 | 0.00 | 0.35 | 0.25 | 82 | 1008.9 |
| 20260507190016 | 66 | 135 | 3.5 | 10.4 | 0.00 | 0.35 | 0.25 | 82 | 1009.0 |
| 20260507185516 | 66 | 113 | 3.5 | 10.4 | 0.00 | 0.35 | 0.25 | 81 | 1008.8 |
| 20260507185016 | 66 | 90 | 1.7 | 7.8 | 0.00 | 0.35 | 0.25 | 83 | 1009.4 |
| 20260507184536 | 66 | 135 | 2.6 | 8.7 | 0.00 | 0.35 | 0.25 | 84 | 1009.6 |
| 20260507184016 | 65 | 135 | 1.7 | 6.1 | 0.00 | 0.35 | 0.25 | 86 | 1009.4 |
| 20260507183536 | 65 | 135 | 2.6 | 8.7 | 0.00 | 0.35 | 0.25 | 85 | 1009.4 |
| 20260507183017 | 64 | 90 | 1.7 | 7.0 | 0.00 | 0.35 | 0.25 | 87 | 1009.4 |
| 20260507182516 | 64 | 90 | 4.3 | 9.6 | 0.00 | 0.35 | 0.25 | 86 | 1009.6 |
| 20260507182036 | 64 | 113 | 2.6 | 7.8 | 0.00 | 0.35 | 0.25 | 87 | 1009.7 |
| 20260507181516 | 64 | 180 | 2.6 | 7.8 | 0.00 | 0.35 | 0.25 | 87 | 1009.6 |
| 20260507181016 | 64 | 113 | 2.6 | 7.8 | 0.00 | 0.35 | 0.25 | 90 | 1009.7 |
| 20260507180516 | 64 | 113 | 2.6 | 9.6 | 0.00 | 0.35 | 0.25 | 89 | 1009.6 |
| 20260507180016 | 64 | 113 | 3.5 | 10.4 | 0.00 | 0.35 | 0.25 | 89 | 1009.6 |
| 20260507175536 | 64 | 113 | 4.3 | 10.4 | 0.00 | 0.35 | 0.25 | 88 | 1009.5 |
| 20260507175016 | 64 | 113 | 3.5 | 13.0 | 0.00 | 0.35 | 0.25 | 89 | 1009.6 |
| 20260507174516 | 64 | 113 | 3.5 | 9.6 | 0.00 | 0.35 | 0.25 | 91 | 1009.5 |
| 20260507174036 | 63 | 113 | 1.7 | 6.1 | 0.00 | 0.35 | 0.25 | 91 | 1009.5 |
| 20260507173516 | 63 | 113 | 4.3 | 9.6 | 0.00 | 0.35 | 0.25 | 90 | 1009.5 |
| 20260507173016 | 63 | 90 | 2.6 | 8.7 | 0.00 | 0.35 | 0.25 | 90 | 1009.6 |
| 20260507172536 | 63 | 135 | 2.6 | 7.0 | 0.00 | 0.35 | 0.25 | 90 | 1009.7 |
| 20260507172036 | 64 | 113 | 0.9 | 6.1 | 0.00 | 0.36 | 0.25 | 90 | 1010.0 |
| 20260507171516 | 64 | 135 | 1.7 | 4.3 | 0.00 | 0.36 | 0.25 | 89 | 1010.0 |
| 20260507171016 | 64 | 90 | 1.7 | 7.0 | 0.00 | 0.36 | 0.25 | 89 | 1009.9 |
| 20260507170516 | 65 | 113 | 2.6 | 7.0 | 0.00 | 0.36 | 0.25 | 89 | 1010.0 |
| 20260507170016 | 66 | 90 | 0.9 | 2.6 | 0.00 | 0.36 | 0.25 | 89 | 1009.9 |
| 20260507165516 | 67 | 293 | 1.7 | 6.1 | 0.00 | 0.36 | 0.25 | 88 | 1009.9 |
| 20260507165016 | 68 | 315 | 1.7 | 10.4 | 0.00 | 0.36 | 0.25 | 88 | 1010.0 |
| 20260507164516 | 68 | 315 | 0.9 | 1.7 | 0.00 | 0.36 | 0.25 | 90 | 1009.8 |
| 20260507164016 | 68 | 315 | 0.9 | 3.5 | 0.00 | 0.36 | 0.25 | 91 | 1009.8 |
| 20260507163516 | 68 | 315 | 1.7 | 4.3 | 0.00 | 0.36 | 0.25 | 91 | 1009.6 |
| 20260507163016 | 68 | 315 | 0.9 | 3.5 | 0.00 | 0.36 | 0.25 | 95 | 1009.6 |
| 20260507162536 | 67 | 315 | 0.9 | 2.6 | 0.00 | 0.36 | 0.25 | 94 | 1009.4 |
| 20260507162016 | 67 | 338 | 1.7 | 4.3 | 0.00 | 0.36 | 0.25 | 94 | 1009.4 |
| 20260507161536 | 67 | 293 | 1.7 | 4.3 | 0.00 | 0.36 | 0.25 | 95 | 1009.4 |
| 20260507161016 | 66 | 293 | 1.7 | 4.3 | 0.00 | 0.36 | 0.25 | 96 | 1009.3 |
| 20260507160516 | 66 | 315 | 0.9 | 1.7 | 0.00 | 0.36 | 0.25 | 98 | 1009.3 |
| 20260507160016 | 65 | 315 | 0.9 | 3.5 | 0.00 | 0.36 | 0.25 | 97 | 1009.6 |
| 20260507155516 | 65 | 225 | 0.9 | 1.7 | 0.00 | 0.36 | 0.25 | 99 | 1009.6 |
| 20260507155016 | 65 | 248 | 0.9 | 1.7 | 0.00 | 0.36 | 0.25 | 98 | 1009.8 |
| 20260507154516 | 65 | 0.0 | 0.9 | 0.00 | 0.36 | 0.25 | 98 | 1009.9 | |
| 20260507154016 | 65 | 248 | 0.9 | 1.7 | 0.00 | 0.36 | 0.25 | 99 | 1010.1 |
| 20260507153516 | 65 | 0.0 | 0.9 | 0.00 | 0.36 | 0.25 | 99 | 1010.1 | |
| 20260507153036 | 65 | 0.0 | 0.9 | 0.01 | 0.36 | 0.25 | 99 | 1010.0 | |
| 20260507152516 | 64 | 0.0 | 0.9 | 0.01 | 0.36 | 0.25 | 99 | 1010.1 | |
| 20260507152036 | 64 | 248 | 0.9 | 1.7 | 0.01 | 0.36 | 0.25 | 99 | 1010.4 |
| 20260507151516 | 64 | 248 | 0.9 | 2.6 | 0.01 | 0.36 | 0.25 | 99 | 1010.5 |
| 20260507151016 | 64 | 0.0 | 1.7 | 0.01 | 0.36 | 0.25 | 99 | 1010.3 | |
| 20260507150516 | 64 | 248 | 0.9 | 1.7 | 0.01 | 0.36 | 0.25 | 99 | 1010.4 |
| 20260507150016 | 64 | 248 | 0.9 | 2.6 | 0.01 | 0.36 | 0.25 | 99 | 1010.5 |
| 20260507145516 | 64 | 248 | 0.9 | 2.6 | 0.01 | 0.36 | 0.25 | 99 | 1010.6 |
| 20260507145016 | 64 | 248 | 0.9 | 2.6 | 0.01 | 0.36 | 0.25 | 99 | 1010.7 |
| 20260507144536 | 64 | 248 | 0.9 | 3.5 | 0.01 | 0.36 | 0.25 | 99 | 1010.8 |
| 20260507144016 | 64 | 0.0 | 0.9 | 0.01 | 0.36 | 0.25 | 99 | 1010.5 | |
| 20260507143516 | 64 | 0.0 | 0.9 | 0.01 | 0.36 | 0.25 | 99 | 1010.0 | |
| 20260507143016 | 64 | 0.0 | 0.9 | 0.01 | 0.35 | 0.24 | 99 | 1010.1 | |
| 20260507142515 | 64 | 0.0 | 0.9 | 0.01 | 0.35 | 0.24 | 99 | 1009.9 | |
| 20260507142016 | 63 | 0.0 | 0.0 | 0.02 | 0.35 | 0.24 | 99 | 1010.1 | |
| 20260507141516 | 63 | 0.0 | 0.9 | 0.02 | 0.35 | 0.24 | 99 | 1009.9 | |
| 20260507141016 | 63 | 0.0 | 0.0 | 0.03 | 0.35 | 0.24 | 99 | 1010.1 | |
| 20260507140516 | 63 | 0.0 | 0.0 | 0.04 | 0.35 | 0.24 | 99 | 1010.0 | |
| 20260507140015 | 63 | 0.0 | 1.7 | 0.05 | 0.35 | 0.24 | 99 | 1010.2 | |
| 20260507135536 | 63 | 315 | 0.9 | 1.7 | 0.06 | 0.35 | 0.24 | 99 | 1010.2 |
| 20260507135015 | 63 | 0.0 | 1.7 | 0.08 | 0.35 | 0.24 | 99 | 1010.2 | |
| 20260507134536 | 63 | 315 | 0.9 | 2.6 | 0.09 | 0.35 | 0.24 | 99 | 1010.4 |
| 20260507134016 | 63 | 315 | 0.9 | 2.6 | 0.10 | 0.35 | 0.24 | 99 | 1010.1 |
| 20260507133516 | 63 | 0.0 | 1.7 | 0.12 | 0.35 | 0.24 | 99 | 1009.9 | |
| 20260507133016 | 63 | 0.0 | 1.7 | 0.13 | 0.34 | 0.23 | 99 | 1009.5 | |
| 20260507132516 | 63 | 0.0 | 1.7 | 0.14 | 0.34 | 0.23 | 99 | 1009.4 | |
| 20260507132016 | 62 | 315 | 0.9 | 1.7 | 0.13 | 0.33 | 0.22 | 99 | 1009.7 |
| 20260507131516 | 62 | 315 | 0.9 | 1.7 | 0.13 | 0.33 | 0.22 | 99 | 1009.4 |
| 20260507131015 | 63 | 0.0 | 0.9 | 0.13 | 0.32 | 0.21 | 99 | 1009.8 | |
| 20260507130516 | 63 | 315 | 0.9 | 1.7 | 0.12 | 0.31 | 0.20 | 99 | 1010.1 |
| 20260507130016 | 63 | 0.0 | 0.9 | 0.11 | 0.30 | 0.19 | 99 | 1010.4 | |
| 20260507125515 | 62 | 0.0 | 0.0 | 0.10 | 0.29 | 0.18 | 99 | 1010.8 | |
| 20260507125015 | 62 | 0.0 | 0.9 | 0.09 | 0.27 | 0.16 | 98 | 1010.9 | |
| 20260507124515 | 63 | 0.0 | 1.7 | 0.08 | 0.26 | 0.15 | 99 | 1011.1 | |
| 20260507124016 | 63 | 0.0 | 1.7 | 0.07 | 0.25 | 0.14 | 99 | 1011.1 | |
| 20260507123515 | 63 | 0.0 | 1.7 | 0.05 | 0.23 | 0.12 | 99 | 1011.4 | |
| 20260507123015 | 63 | 315 | 0.9 | 1.7 | 0.03 | 0.21 | 0.10 | 99 | 1011.6 |
| 20260507122515 | 63 | 0.0 | 0.9 | 0.02 | 0.20 | 0.09 | 99 | 1011.4 | |
| 20260507122015 | 63 | 0.0 | 0.9 | 0.02 | 0.20 | 0.09 | 99 | 1011.3 | |
| 20260507121535 | 63 | 0.0 | 0.0 | 0.02 | 0.20 | 0.09 | 99 | 1011.2 | |
| 20260507121015 | 63 | 0.0 | 0.0 | 0.01 | 0.19 | 0.08 | 99 | 1011.0 | |
| 20260507120516 | 63 | 0.0 | 1.7 | 0.01 | 0.19 | 0.08 | 99 | 1010.8 | |
| 20260507120015 | 63 | 0.0 | 0.9 | 0.01 | 0.19 | 0.08 | 99 | 1010.7 | |
| 20260507115535 | 63 | 0.0 | 0.9 | 0.01 | 0.19 | 0.08 | 99 | 1010.8 | |
| 20260507115015 | 63 | 0.0 | 0.9 | 0.00 | 0.18 | 0.07 | 99 | 1011.1 | |
| 20260507114515 | 62 | 0.0 | 0.9 | 0.00 | 0.18 | 0.07 | 99 | 1011.2 | |
| 20260507114015 | 62 | 0.0 | 0.0 | 0.00 | 0.18 | 0.07 | 99 | 1011.0 | |
| 20260507113516 | 62 | 0.0 | 0.0 | 0.00 | 0.18 | 0.07 | 99 | 1010.9 | |
| 20260507113016 | 62 | 0.0 | 0.9 | 0.00 | 0.18 | 0.07 | 99 | 1010.9 | |
| 20260507112516 | 62 | 0.0 | 0.9 | 0.00 | 0.18 | 0.07 | 99 | 1010.9 | |
| 20260507112015 | 62 | 0.0 | 0.9 | 0.00 | 0.18 | 0.07 | 99 | 1010.6 | |
| 20260507111515 | 62 | 0.0 | 0.0 | 0.00 | 0.18 | 0.07 | 99 | 1010.8 | |
| 20260507111037 | 62 | 0.0 | 0.0 | 0.00 | 0.18 | 0.07 | 98 | 1010.8 | |
| 20260507110518 | 62 | 0.0 | 0.0 | 0.00 | 0.18 | 0.07 | 98 | 1010.5 | |
| 20260507110037 | 62 | 0.0 | 0.0 | 0.00 | 0.18 | 0.07 | 98 | 1010.3 | |
| 20260507105517 | 62 | 0.0 | 0.0 | 0.00 | 0.18 | 0.07 | 98 | 1010.3 | |
| 20260507105017 | 62 | 0.0 | 0.0 | 0.00 | 0.18 | 0.07 | 98 | 1010.4 | |
| 20260507104517 | 62 | 0.0 | 0.0 | 0.00 | 0.18 | 0.07 | 98 | 1010.4 | |
| 20260507104017 | 62 | 0.0 | 0.0 | 0.00 | 0.18 | 0.07 | 98 | 1010.5 | |
| 20260507103517 | 62 | 0.0 | 0.0 | 0.00 | 0.18 | 0.07 | 98 | 1010.5 | |
| 20260507103017 | 62 | 0.0 | 0.9 | 0.00 | 0.18 | 0.07 | 98 | 1010.5 | |
| 20260507102517 | 62 | 0.0 | 0.0 | 0.00 | 0.18 | 0.07 | 98 | 1010.4 | |
| 20260507102017 | 62 | 0.0 | 0.0 | 0.00 | 0.18 | 0.07 | 98 | 1010.4 | |
| 20260507101517 | 62 | 0.0 | 0.0 | 0.00 | 0.18 | 0.07 | 98 | 1010.4 | |
| 20260507101017 | 62 | 0.0 | 0.0 | 0.00 | 0.18 | 0.07 | 98 | 1010.4 | |
| 20260507100517 | 62 | 0.0 | 0.0 | 0.00 | 0.18 | 0.07 | 98 | 1010.3 | |
| 20260507100017 | 62 | 0.0 | 0.0 | 0.01 | 0.18 | 0.07 | 98 | 1010.4 | |
| 20260507095517 | 62 | 0.0 | 0.0 | 0.01 | 0.18 | 0.07 | 98 | 1010.5 | |
| 20260507095015 | 62 | 0.0 | 0.0 | 0.01 | 0.18 | 0.07 | 98 | 1010.5 | |
| 20260507094523 | 62 | 0.0 | 0.9 | 0.01 | 0.18 | 0.07 | 98 | 1010.6 | |
| 20260507094023 | 62 | 0.0 | 0.9 | 0.01 | 0.18 | 0.07 | 98 | 1010.5 | |
| 20260507093543 | 62 | 0.0 | 0.9 | 0.01 | 0.18 | 0.07 | 98 | 1010.6 | |
| 20260507093023 | 62 | 0.0 | 1.7 | 0.01 | 0.18 | 0.07 | 98 | 1010.8 | |
| 20260507092523 | 62 | 0.0 | 0.9 | 0.01 | 0.18 | 0.07 | 98 | 1010.9 | |
| 20260507092023 | 62 | 0.0 | 0.0 | 0.01 | 0.18 | 0.07 | 98 | 1010.6 | |
| 20260507091523 | 62 | 0.0 | 0.0 | 0.01 | 0.18 | 0.07 | 98 | 1010.6 | |
| 20260507091023 | 62 | 0.0 | 0.0 | 0.01 | 0.18 | 0.07 | 98 | 1010.6 | |
| 20260507090523 | 62 | 0.0 | 0.9 | 0.01 | 0.18 | 0.07 | 98 | 1010.6 | |
| 20260507090023 | 62 | 315 | 0.9 | 3.5 | 0.00 | 0.17 | 0.06 | 98 | 1010.8 |